Flag for U.S.A. Weather past 2 weeks in Hampton, Virginia, U.S.A.

Now
87 °F

Clear.


Feels Like: 93 °F
Forecast: 77 / 84 °F
Wind: 10 mph from Southwest

Location: Langley Air Force Base

Current Time: Sep 2, 2014 at 11:10:11 PM

Latest Report: Sep 2, 2014 at 9:58 PM


Visibility: 10 mi

Pressure: 29.95 "Hg

Humidity: 61%

Dew point: 72 °F

Location of HamptonLocation

Historic Weather in Hampton — Graph

°F

Hampton temperature yesterday

Maximum temperature yesterday: 92 °F (at 3:58 PM)
Minimum temperature yesterday: 77 °F (at 6:58 AM)
Average temperature yesterday: 84 °F

Past Weeks' High & Low Weather Summary

 TemperatureHumidityPressure
High96 °F (Sep 2, 2:58 PM)100% (Aug 18, 8:58 PM)30.26 "Hg (Aug 18, 8:58 PM)
Low64 °F (Aug 27, 2:03 AM)41% (Sep 2, 4:58 PM)29.76 "Hg (Aug 19, 2:49 AM)
Average77 °F80%30.03 "Hg
* Reported Aug 18 8:58 PM — Sep 2 8:58 PM, Hampton, Weather by CustomWeather, © 2014

Note: Actual official high and low records may vary slightly from our data, if they occured in-between our weather recording intervals... More about our weather records

Advertising

Hampton weather history for previous 24 hours

 ConditionsComfort  
Time TempWeatherWind HumidityBarometerVisibility
8:58 PM
Sep 2
88 °FClear.14 mph61%29.94 "Hg10 mi
7:58 PM89 °FSunny.15 mph57%29.93 "Hg10 mi
6:58 PM91 °FSunny.12 mph52%29.92 "Hg10 mi
5:58 PM94 °FSunny.15 mph45%29.91 "Hg10 mi
4:58 PM95 °FSunny.16 mph41%29.93 "Hg10 mi
3:58 PM95 °FSunny.14 mph43%29.94 "Hg10 mi
2:58 PM96 °FSunny.13 mph43%29.96 "Hg10 mi
1:58 PM95 °FPassing clouds.8 mph47%29.98 "Hg10 mi
12:58 PM93 °FSunny.6 mph49%29.99 "Hg10 mi
11:58 AM92 °FSunny.7 mph56%30.01 "Hg10 mi
10:58 AM89 °FSunny.10 mph63%30.03 "Hg10 mi
9:58 AM86 °FSunny.10 mph68%30.03 "Hg10 mi
8:58 AM83 °FSunny.14 mph77%30.03 "Hg10 mi
7:58 AM80 °FPassing clouds.12 mph96%30.04 "Hg10 mi
6:58 AM78 °FPassing clouds.8 mph100%30.03 "Hg10 mi
5:58 AM78 °FClear.9 mph100%30.01 "Hg10 mi
4:58 AM78 °FClear.8 mph100%30.01 "Hg10 mi
3:58 AM78 °FClear.7 mph100%30.01 "Hg10 mi
2:58 AM79 °FClear.10 mph96%30.02 "Hg10 mi
1:58 AM79 °FClear.6 mph84%30.03 "Hg10 mi
1:03 AM81 °FClear.3 mph74%30.01 "Hg9 mi
12:58 AM81 °FClear.5 mph71%30.03 "Hg8 mi
11:58 PM
Sep 1
81 °FClear.8 mph67%30.02 "Hg10 mi
Weather by CustomWeather, © 2014

See weather overviewHow to use our weather pages